Location: Corralito
(14.1667°N, 87.1833°W)
Time: 23:35:42
(UTC+00:00)

ATLAS 2AS CENTAUR R/B - Pass Details

Date: 07 June 2020
Orbit: 925 x 1286 km, 63.7° (Epoch: 24 June)

Event Time Altitude Azimuth Distance (km) Brightness Sun altitude
Rises 01:15:02 0° 186° (S) 4,026 5.5 -13.8°
Reaches altitude 10° 01:17:51 10° 179° (S) 3,113 4.8 -14.4°
Maximum altitude 01:24:53 43° 110° (ESE) 1,690 3.3 -15.9°
Drops below altitude 10° 01:32:16 10° 42° (NE) 3,274 5.1 -17.4°
Sets 01:35:17 0° 36° (NE) 4,252 5.8 -18.0°
